Medford, WI

5:14 PM CDT on October 20, 2017 (GMT -0500)
Taylor County

Weather History for KMDZ - November, 2013

Change the Weather History Date:

Saturday, November 16, 2013

  Actual Average Record
Temperature  
Mean Temperature 43 °F -  
Max Temperature 51 °F 38 °F 68 °F (1953)
Min Temperature 35 °F 23 °F 2 °F (1959)
Degree Days  
Heating Degree Days 22    
Moisture  
Dew Point 39 °F    
Average Humidity 92    
Maximum Humidity 99    
Minimum Humidity 80    
Precipitation  
Precipitation 0.48 in - - ()
Sea Level Pressure  
Sea Level Pressure 29.53 in    
Wind  
Wind Speed 10 mph (SSE)    
Max Wind Speed 16 mph    
Max Gust Speed 23 mph    
Visibility 7 miles    
Events Fog , Rain , Thunderstorm    
Averages and records for this station are not official NWS values.
T = Trace of Precipitation, MM = Missing Value Source: NWS Daily Summary

Daily Weather History Graph

Daily Weather History Graph

Search for Another Location

Airport or City:

Trip Planner

Search our weather history database for the weather conditions in past years. The results will help you decide how hot, cold, wet, or windy it might be!

Date:

Astronomy

Nov. 16, 2013 Rise Set
Actual Time 7:00 AM CST 4:30 PM CST
Civil Twilight 6:28 AM CST 5:02 PM CST
Nautical Twilight 5:53 AM CST 5:38 PM CST
Astronomical Twilight 5:18 AM CST 6:13 PM CST
Moon 4:07 PM CST (11/16) 5:54 AM CST (11/16)
Length of Visible Light 10h 33m
Length of Day
9h 29m
Waxing Gibbous, 99% of the Moon is Illuminated
Nov 16
Waxing Gibbous
Nov 17
Full
Nov 25
Last Quarter
Dec 2
New
Dec 9
First Quarter

Hourly Weather History & Observations

Time (CST) Temp. Windchill Dew Point Humidity Pressure Visibility Wind Dir Wind Speed Gust Speed Precip Events Conditions
12:15 AM 35.8 °F 28.8 °F 32.0 °F 86% 29.75 in 10.0 mi SSE 9.2 mph - N/A   Clear
12:35 AM 35.2 °F 28.8 °F 31.6 °F 87% 29.74 in 10.0 mi SSE 8.1 mph - N/A   Clear
12:55 AM 36.0 °F 29.0 °F 31.8 °F 85% 29.74 in 10.0 mi SSE 9.2 mph - N/A   Clear
1:15 AM 35.6 °F 29.2 °F 31.8 °F 86% 29.73 in 10.0 mi SSE 8.1 mph - N/A   Clear
1:35 AM 35.4 °F 28.4 °F 31.5 °F 85% 29.73 in 10.0 mi SSE 9.2 mph - N/A   Scattered Clouds
1:55 AM 36.5 °F 29.2 °F 32.0 °F 84% 29.73 in 10.0 mi SSE 10.4 mph - N/A   Mostly Cloudy
2:15 AM 36.9 °F 29.1 °F 32.0 °F 83% 29.74 in 10.0 mi SSE 11.5 mph - N/A   Overcast
2:35 AM 37.4 °F 29.8 °F 32.2 °F 81% 29.73 in 10.0 mi SSE 11.5 mph - N/A   Overcast
2:55 AM 37.8 °F 31.3 °F 32.4 °F 81% 29.73 in 10.0 mi SSE 9.2 mph - N/A   Overcast
3:15 AM 37.8 °F 31.3 °F 32.2 °F 80% 29.71 in 10.0 mi SSE 9.2 mph - N/A   Overcast
3:35 AM 37.4 °F 30.8 °F 32.2 °F 81% 29.71 in 10.0 mi SSE 9.2 mph - N/A   Overcast
3:55 AM 37.4 °F 31.4 °F 32.0 °F 81% 29.71 in 10.0 mi SSE 8.1 mph - N/A   Overcast
4:15 AM 37.0 °F 31.0 °F 32.0 °F 82% 29.71 in 10.0 mi SSE 8.1 mph - N/A   Overcast
4:35 AM 36.9 °F 30.1 °F 32.0 °F 83% 29.71 in 10.0 mi SSE 9.2 mph - N/A   Overcast
4:55 AM 36.7 °F 30.5 °F 32.0 °F 83% 29.70 in 10.0 mi SSE 8.1 mph - N/A   Overcast
5:15 AM 37.0 °F 29.8 °F 32.0 °F 82% 29.68 in 10.0 mi SSE 10.4 mph 16.1 mph N/A   Overcast
5:35 AM 37.0 °F 29.8 °F 32.2 °F 83% 29.67 in 10.0 mi SE 10.4 mph 16.1 mph N/A   Overcast
5:55 AM 37.0 °F 29.8 °F 32.5 °F 84% 29.66 in 10.0 mi SSE 10.4 mph 16.1 mph N/A   Overcast
6:15 AM 37.4 °F 29.8 °F 32.9 °F 84% 29.66 in 10.0 mi SSE 11.5 mph 16.1 mph N/A   Overcast
6:35 AM 37.4 °F 30.3 °F 33.1 °F 84% 29.66 in 10.0 mi SSE 10.4 mph 16.1 mph N/A   Overcast
6:55 AM 37.2 °F 31.2 °F 33.1 °F 85% 29.65 in 10.0 mi SE 8.1 mph - N/A   Overcast
7:15 AM 36.7 °F 29.9 °F 33.1 °F 87% 29.64 in 10.0 mi SE 9.2 mph 17.3 mph N/A   Overcast
7:35 AM 37.4 °F 30.3 °F 33.8 °F 87% 29.64 in 10.0 mi SSE 10.4 mph - N/A   Overcast
7:55 AM 37.2 °F 30.0 °F 33.8 °F 87% 29.64 in 10.0 mi SSE 10.4 mph 17.3 mph N/A   Overcast
8:15 AM 36.7 °F 28.4 °F 33.6 °F 89% 29.64 in 7.0 mi SSE 12.7 mph 18.4 mph N/A   Overcast
8:35 AM 36.5 °F 27.4 °F 33.4 °F 89% 29.64 in 7.0 mi SSE 15.0 mph 18.4 mph N/A   Overcast
8:55 AM 36.5 °F 27.0 °F 34.2 °F 91% 29.64 in 5.0 mi SSE 16.1 mph 20.7 mph N/A   Overcast
9:15 AM 36.7 °F 27.6 °F 34.9 °F 93% 29.63 in 4.0 mi SSE 15.0 mph 21.9 mph N/A   Overcast
9:35 AM 36.5 °F 27.8 °F 35.6 °F 97% 29.63 in 2.0 mi SSE 13.8 mph 19.6 mph N/A   Overcast
9:55 AM 36.7 °F 28.9 °F 35.8 °F 97% 29.63 in 1.5 mi SSE 11.5 mph 17.3 mph N/A   Overcast
10:15 AM 36.9 °F 28.2 °F 36.1 °F 97% 29.62 in 0.8 mi SSE 13.8 mph 23.0 mph N/A   Overcast
10:35 AM 37.4 °F 30.3 °F 36.7 °F 97% 29.62 in 0.5 mi SSE 10.4 mph 17.3 mph N/A Fog Fog
10:55 AM 37.4 °F 29.8 °F 36.9 °F 98% 29.60 in 0.5 mi SSE 11.5 mph 16.1 mph N/A Fog Fog
11:15 AM 38.1 °F 31.2 °F 37.6 °F 98% 29.58 in 0.8 mi SE 10.4 mph 18.4 mph N/A   Overcast
11:35 AM 38.3 °F 30.9 °F 37.8 °F 98% 29.58 in 0.8 mi SE 11.5 mph 17.3 mph N/A Rain Light Rain
11:55 AM 38.7 °F 31.4 °F 38.3 °F 99% 29.55 in 0.8 mi SE 11.5 mph 18.4 mph N/A Rain Light Rain
12:15 PM 39.0 °F 31.8 °F 38.3 °F 97% 29.55 in 1.0 mi SSE 11.5 mph - N/A Rain Light Rain
12:35 PM 39.2 °F 34.2 °F 38.5 °F 97% 29.54 in 1.0 mi SE 6.9 mph - N/A   Drizzle
12:55 PM 39.2 °F 33.6 °F 38.5 °F 97% 29.54 in 1.0 mi SE 8.1 mph - N/A Rain Light Rain
1:15 PM 39.4 °F 33.2 °F 38.8 °F 98% 29.51 in 1.5 mi SE 9.2 mph - N/A Rain Rain
1:35 PM 39.7 °F 33.2 °F 39.2 °F 98% 29.48 in 0.8 mi SE 10.4 mph 16.1 mph 0.10 in Rain Heavy Rain
1:55 PM 40.8 °F 33.7 °F 40.1 °F 97% 29.46 in 2.5 mi SE 12.7 mph 21.9 mph 0.11 in Rain Light Rain
2:15 PM 41.4 °F 35.7 °F 40.6 °F 97% 29.45 in 5.0 mi SE 9.2 mph - N/A   Overcast
2:35 PM 41.9 °F 36.3 °F 41.2 °F 97% 29.44 in 4.0 mi SE 9.2 mph 17.3 mph 0.01 in Rain , Thunderstorm Light Thunderstorms and Rain
2:55 PM 42.8 °F 36.6 °F 42.1 °F 97% 29.42 in 3.0 mi SSE 11.5 mph 18.4 mph 0.01 in Rain Rain
3:15 PM 43.7 °F 37.7 °F 43.0 °F 97% 29.40 in 3.0 mi SE 11.5 mph 18.4 mph 0.03 in Rain Rain
3:35 PM 44.2 °F 38.4 °F 43.7 °F 98% 29.39 in 2.5 mi SSE 11.5 mph 17.3 mph 0.09 in Rain Rain
3:55 PM 44.6 °F 39.7 °F 43.7 °F 97% 29.37 in 2.5 mi SE 9.2 mph 17.3 mph 0.11 in Rain Heavy Rain
4:15 PM 44.8 °F 39.9 °F 44.2 °F 98% 29.36 in 4.0 mi SE 9.2 mph 18.4 mph 0.04 in Rain Rain
4:35 PM 45.5 °F 39.6 °F 44.8 °F 97% 29.35 in 5.0 mi SSE 12.7 mph 18.4 mph 0.09 in Rain Rain
4:55 PM 45.7 °F 41.0 °F 45.1 °F 98% 29.35 in 5.0 mi SE 9.2 mph - 0.13 in Rain Light Rain
5:15 PM 46.0 °F 41.9 °F 45.5 °F 98% 29.35 in 5.0 mi SSE 8.1 mph - 0.01 in Rain Light Rain
5:55 PM 48.4 °F - 47.8 °F 98% 29.34 in 7.0 mi SSE 9.2 mph - 0.10 in Rain Light Rain
6:15 PM 49.1 °F - 48.4 °F 97% 29.33 in 7.0 mi SSE 10.4 mph - N/A   Overcast
6:35 PM 49.1 °F - 48.4 °F 97% 29.32 in 7.0 mi SSE 13.8 mph 18.4 mph N/A Rain Light Rain
6:55 PM 49.5 °F - 48.7 °F 97% 29.31 in 7.0 mi SSE 11.5 mph - N/A Rain , Thunderstorm Rain
7:15 PM 49.6 °F - 48.7 °F 97% 29.31 in 7.0 mi SSE 13.8 mph - 0.02 in Rain Rain
7:35 PM 49.8 °F - 49.1 °F 97% 29.31 in 7.0 mi SSE 11.5 mph - 0.02 in   Overcast
7:55 PM 49.6 °F - 49.1 °F 98% 29.31 in 7.0 mi South 13.8 mph - 0.02 in   Overcast
8:15 PM 50.9 °F - 49.5 °F 95% 29.32 in 10.0 mi South 15.0 mph - N/A Thunderstorm Overcast
8:35 PM 51.3 °F - 49.6 °F 94% 29.32 in 10.0 mi South 12.7 mph 19.6 mph N/A   Overcast
8:55 PM 51.3 °F - 49.8 °F 95% 29.33 in 10.0 mi SW 6.9 mph 17.3 mph N/A   Overcast
9:15 PM 51.6 °F - 50.2 °F 95% 29.33 in 10.0 mi South 15.0 mph - N/A   Overcast
9:35 PM 51.8 °F - 50.4 °F 95% 29.33 in 10.0 mi SSW 16.1 mph 21.9 mph N/A   Overcast
9:55 PM 51.8 °F - 50.5 °F 95% 29.34 in 10.0 mi South 12.7 mph 20.7 mph N/A   Overcast
10:15 PM 51.8 °F - 50.2 °F 94% 29.34 in 10.0 mi SSW 16.1 mph 20.7 mph N/A   Overcast
10:35 PM 51.1 °F - 49.8 °F 95% 29.35 in 10.0 mi SW 12.7 mph 23.0 mph N/A   Overcast
10:55 PM 50.4 °F - 48.9 °F 95% 29.36 in 10.0 mi SW 12.7 mph 17.3 mph N/A   Mostly Cloudy
11:15 PM 49.5 °F - 46.4 °F 89% 29.36 in 10.0 mi SW 10.4 mph 16.1 mph N/A   Scattered Clouds
11:35 PM 47.8 °F - 45.0 °F 90% 29.37 in 10.0 mi SSW 8.1 mph - N/A   Clear
11:55 PM 46.9 °F - 45.0 °F 93% 29.37 in 10.0 mi SW 6.9 mph - N/A   Clear